Tracking 35274 objects as of 12-Sep-2026
HD Live streaming from Space Station
objects crossing your sky now

STARLINK-2120


STARLINK-2120 is no longer on orbit
STARLINK-2120 is classified as:


NORAD ID: 47398
Int'l Code: 2021-005BB
Launch date: January 20, 2021
Source: United States (US)
Launch site: AIR FORCE EASTERN TEST RANGE (AFETR)
Decay date: 2024-12-09
Your satellite tracking list
Your tracking list is empty




NASA's NSSDC Master Catalog

Two Line Element Set (TLE):
1 47398U 21005BB  24343.99643196  .13114321  12335-4  75266-3 0  9995
2 47398  53.0318 257.8316 0005197 205.9824 261.0113 16.41866419215645
Source of the keplerian elements: AFSPC